Location: Ammerl�gen
(47.2167°N, 9.6000°E)
Time: 20:26:48
(UTC+00:00)

VELOX 1 - Visible Passes

Search period start: 05 December 2021 00:00
Search period end: 15 December 2021 00:00
Orbit: 627 x 641 km, 98.3° (Epoch: 05 December)

Date Brightness Start Highest point End Pass type
(mag) Time Alt. Az. Time Alt. Az. Time Alt. Az.
05 Dec ? 16:02:56 10° NNE 16:07:22 70° ESE 16:11:45 10° S visible
05 Dec ? 17:40:37 10° NNW 17:43:11 15° WNW 17:45:45 10° W visible
06 Dec ? 16:24:36 10° N 16:29:02 72° WNW 16:33:24 10° SSW visible
07 Dec ? 16:46:26 10° N 16:50:38 44° WNW 16:54:48 10° SW visible
08 Dec ? 17:08:23 10° N 17:12:10 28° WNW 17:15:54 10° WSW visible
09 Dec ? 17:30:33 10° NNW 17:33:37 19° WNW 17:36:40 10° WSW visible
10 Dec ? 16:14:55 10° NNE 16:19:21 90° ESE 16:23:45 10° SSW visible
10 Dec ? 17:53:12 10° NNW 17:55:01 12° WNW 17:56:50 10° W visible
11 Dec ? 16:36:39 10° N 16:40:58 56° WNW 16:45:16 10° SSW visible
12 Dec ? 16:58:31 10° N 17:02:32 35° WNW 17:06:30 10° SW visible
13 Dec ? 17:20:34 10° NNW 17:24:01 23° WNW 17:27:27 10° WSW visible
14 Dec ? 16:05:13 10° NNE 16:09:37 71° ESE 16:14:00 10° S visible
14 Dec ? 17:42:55 10° NNW 17:45:26 15° WNW 17:47:57 10° W visible
